Weather History for Sarasota, FL

Change the Weather History Date:

Thursday, January 12, 2006

  Actual Average Record
Temperature  
Mean Temperature 68 °F 61 °F  
Max Temperature 78 °F 71 °F 86 °F (1993)
Min Temperature 58 °F 52 °F 24 °F (1927)
Degree Days  
Heating Degree Days 0 5  
Month to date heating degree days 52 69  
Since 1 July heating degree days 210 224  
Cooling Degree Days 3 2  
Month to date cooling degree days 25 24  
Year to date cooling degree days 25 24  
Growing Degree Days 16 (Base 50)    
Moisture  
Dew Point 61 °F    
Average Humidity 87    
Maximum Humidity 97    
Minimum Humidity 69    
Precipitation  
Precipitation 0.00 in 0.08 in 2.00 in (1964)
Month to date precipitation 5.73 1.35  
Year to date precipitation 5.73 1.35  
Sea Level Pressure  
Sea Level Pressure 30.06 in    
Wind  
Wind Speed 5 mph (NE)    
Max Wind Speed 12 mph    
Max Gust Speed 13 mph    
Visibility 5 miles    
Events Fog    
T = Trace of Precipitation, MM = Missing Value Source: NWS Daily Summary

Daily Weather History Graph

Daily Weather History Graph

Search for Another Location

Airport:

Trip Planner

Search our weather history database for the weather conditions in past years. The results will help you decide how hot, cold, wet, or windy it might be!

Date:

Astronomy

Jan. 12, 2006 Rise Set
Actual Time 7:21 AM EST 5:55 PM EST
Civil Twilight 6:56 AM EST 6:20 PM EST
Nautical Twilight 6:27 AM EST 6:49 PM EST
Astronomical Twilight 5:59 AM EST 7:17 PM EST
Moon 4:21 PM EST (1/12) 6:08 AM EST (1/12)
Length of Visible Light 11h 24m
Length of Day
10h 33m
Waxing Gibbous, 97% of the Moon is Illuminated
Jan 12
Waxing Gibbous
Jan 14
Full
Jan 22
Last Quarter
Jan 29
New
Feb 5
First Quarter

Hourly Weather History & Observations

Time (EST) Temp. Dew Point Humidity Pressure Visibility Wind Dir Wind Speed Gust Speed Precip Events Conditions
12:53 AM 62.1 °F 57.9 °F 86% 30.08 in 10.0 mi NNE 4.6 mph - N/A   Clear
1:53 AM 61.0 °F 57.9 °F 90% 30.06 in 10.0 mi NE 4.6 mph - N/A   Clear
2:53 AM 61.0 °F 57.9 °F 90% 30.05 in 10.0 mi NNE 3.5 mph - N/A   Clear
3:53 AM 57.9 °F 55.9 °F 93% 30.05 in 9.0 mi NE 3.5 mph - N/A   Clear
4:53 AM 60.1 °F 57.0 °F 90% 30.04 in 10.0 mi NE 4.6 mph - N/A   Clear
5:53 AM 60.1 °F 57.0 °F 90% 30.05 in 8.0 mi NNE 4.6 mph - N/A   Clear
6:18 AM 59.0 °F 55.4 °F 88% 30.06 in 8.0 mi NE 3.5 mph - N/A   Scattered Clouds
6:27 AM 60.8 °F 57.2 °F 88% 30.06 in 8.0 mi NE 4.6 mph - N/A   Mostly Cloudy
6:36 AM 60.8 °F 57.2 °F 88% 30.06 in 7.0 mi Calm Calm - N/A   Overcast
6:49 AM 60.8 °F 57.2 °F 88% 30.07 in 1.8 mi ENE 3.5 mph - N/A   Overcast
6:53 AM 60.1 °F 57.9 °F 93% 30.06 in 0.8 mi East 3.5 mph - N/A   Overcast
7:07 AM 60.8 °F 57.2 °F 88% 30.07 in 0.2 mi Calm Calm - N/A Fog Fog
7:20 AM 60.8 °F 57.2 °F 88% 30.08 in 2.0 mi Calm Calm - N/A   Overcast
7:53 AM 61.0 °F 59.0 °F 93% 30.09 in 3.0 mi Calm Calm - N/A   Overcast
8:17 AM 62.6 °F 60.8 °F 94% 30.09 in 2.5 mi ENE 5.8 mph - N/A   Overcast
8:28 AM 62.6 °F 60.8 °F 94% 30.09 in 0.8 mi ENE 5.8 mph - N/A   Overcast
8:53 AM 63.0 °F 61.0 °F 93% 30.10 in 0.2 mi East 4.6 mph - N/A Fog Fog
9:53 AM 66.9 °F 64.9 °F 93% 30.11 in 0.8 mi East 5.8 mph - N/A   Overcast
10:36 AM 69.8 °F 66.2 °F 88% 30.11 in 7.0 mi ESE 9.2 mph - N/A   Mostly Cloudy
11:00 AM 73.4 °F 66.2 °F 78% 30.10 in 10.0 mi East 6.9 mph - N/A   Mostly Cloudy
11:23 AM 75.2 °F 64.4 °F 69% 30.10 in 10.0 mi SE 6.9 mph - N/A   Mostly Cloudy
11:53 AM 75.0 °F 64.0 °F 69% 30.08 in 10.0 mi ESE 8.1 mph - N/A   Mostly Cloudy
12:00 PM 75.2 °F 64.4 °F 69% 30.07 in 10.0 mi ESE 8.1 mph - N/A   Mostly Cloudy
12:53 PM 72.0 °F 64.9 °F 78% 30.05 in 8.0 mi West 9.2 mph - N/A   Mostly Cloudy
1:53 PM 71.1 °F 64.0 °F 78% 30.03 in 9.0 mi West 9.2 mph - N/A   Clear
2:53 PM 71.1 °F 64.0 °F 78% 30.02 in 4.0 mi West 8.1 mph - N/A   Partly Cloudy
3:53 PM 72.0 °F 64.9 °F 78% 30.02 in 4.0 mi West 6.9 mph - N/A   Partly Cloudy
4:53 PM 72.0 °F 64.9 °F 78% 30.02 in 8.0 mi WNW 6.9 mph - N/A   Clear
5:53 PM 68.0 °F 64.0 °F 87% 30.03 in 8.0 mi West 5.8 mph - N/A   Clear
6:53 PM 66.0 °F 63.0 °F 90% 30.04 in 6.0 mi WNW 3.5 mph - N/A   Clear
7:45 PM 64.4 °F 60.8 °F 88% 30.04 in 1.0 mi North 5.8 mph - N/A   Mist
7:53 PM 64.0 °F 61.0 °F 90% 30.04 in 1.2 mi North 5.8 mph - N/A   Mostly Cloudy
8:04 PM 64.4 °F 60.8 °F 88% 30.04 in 0.5 mi North 3.5 mph - N/A Fog Fog
8:23 PM 64.4 °F 60.8 °F 88% 30.05 in 3.0 mi Calm Calm - N/A   Mostly Cloudy
8:30 PM 62.6 °F 60.8 °F 94% 30.05 in 3.0 mi Calm Calm - N/A   Scattered Clouds
8:53 PM 64.0 °F 61.0 °F 90% 30.05 in 4.0 mi ENE 3.5 mph - N/A   Scattered Clouds
9:53 PM 64.0 °F 61.0 °F 90% 30.06 in 2.5 mi Calm Calm - N/A   Clear
10:44 PM 62.6 °F 60.8 °F 94% 30.05 in 1.8 mi Calm Calm - N/A   Clear
10:53 PM 62.1 °F 59.0 °F 90% 30.05 in 1.8 mi Calm Calm - N/A   Clear
11:00 PM 62.6 °F 60.8 °F 94% 30.04 in 2.5 mi Calm Calm - N/A   Clear
11:53 PM 62.1 °F 60.1 °F 93% 30.04 in 1.2 mi ESE 3.5 mph - N/A   Clear